Wind_Speed
16 17 18 18 18 20 22 24 26 27 28 29 31 33 34 36 37 39 41 41 42 43 44 45 46 46 47 49 50 51 51 52 52 50 48 48 48 48 47 47 47 47 47
16 17 17 18 20 23 25 28 30 31 33 34 36 37 39 41 43 44 47 48 49 49 50 49 50 50 50 50 51 52 52 53 53 53 53 52 51 51 51 51 51 51 51
16 17 18 20 22 24 26 29 32 34 36 38 40 42 44 46 48 50 51 54 55 55 54 54 54 54 54 54 54 54 54 54 55 55 55 55 55 55 55 54 54 54 54
18 19 20 21 22 25 28 31 33 35 37 40 43 45 48 50 52 54 56 58 59 60 60 59 59 59 59 59 59 58 58 57 57 57 57 57 57 58 58 58 57 56 56
21 22 23 24 26 28 31 33 35 37 39 41 45 47 50 54 56 58 60 62 63 63 64 64 63 62 62 62 61 60 59 59 60 60 61 61 61 61 61 60 61 61 60
27 28 29 30 32 33 35 37 38 40 41 43 46 50 53 56 59 61 63 65 66 67 66 66 64 63 62 60 58 58 57 57 57 58 60 61 63 63 65 65 65 64 63
32 34 35 36 37 38 39 41 44 45 46 47 50 53 56 59 62 64 66 67 68 67 66 63 61 58 56 54 52 51 51 51 52 53 56 58 61 63 65 67 68 68 67
37 38 40 41 43 44 44 47 49 50 51 52 54 55 58 61 64 65 65 64 63 62 59 56 52 50 49 48 47 47 47 48 50 52 54 56 58 60 63 65 68 70 70
43 44 45 47 49 51 52 52 53 53 54 56 58 59 60 61 62 63 61 57 53 49 48 47 46 46 46 46 47 49 49 50 52 53 54 55 57 59 60 62 66 69 71
51 52 53 54 56 56 56 56 56 56 57 59 61 62 61 59 57 54 51 48 45 44 44 45 45 46 47 48 49 51 52 53 54 54 55 55 56 57 59 60 62 65 67
57 57 58 59 60 60 58 57 57 57 59 61 62 61 58 54 51 48 46 45 45 45 45 46 48 50 51 52 53 55 55 55 55 55 55 55 55 56 57 58 58 61 63
53 53 54 55 56 57 57 57 57 58 60 62 61 59 54 51 49 48 47 46 46 47 49 51 53 55 56 57 58 58 58 57 56 55 54 54 54 54 55 56 56 57 58
46 46 48 49 51 53 55 57 58 60 61 61 59 55 53 51 51 50 50 50 50 51 53 55 58 60 61 62 62 61 59 58 57 55 54 53 53 53 52 53 55 55 55
46 46 48 50 52 54 57 59 60 61 61 59 57 54 53 53 54 55 56 56 56 57 58 59 61 63 65 65 64 62 60 58 57 56 54 53 52 51 51 51 52 53 54
47 48 51 53 55 57 58 59 60 60 59 58 56 55 55 56 57 59 60 61 62 63 62 61 62 63 64 64 63 60 58 58 57 55 53 51 50 49 49 49 49 50 51
49 51 53 54 55 56 58 59 59 59 58 57 56 57 58 60 61 61 62 64 65 66 66 62 60 58 59 59 59 57 55 54 54 52 50 49 48 47 46 47 47 47 48
50 52 53 54 55 57 58 59 58 58 57 57 58 59 60 61 61 62 64 64 64 64 64 59 54 49 49 51 51 50 49 48 48 47 45 45 45 44 44 44 44 45 45
50 51 52 54 56 57 57 57 57 57 57 58 59 60 61 61 62 61 60 59 58 57 55 50 45 42 42 43 43 43 43 43 41 40 38 39 40 40 41 41 42 43 44
50 51 53 54 55 55 55 55 55 56 58 59 60 60 60 60 58 55 52 50 48 46 43 40 37 36 36 37 38 38 37 34 32 30 30 33 35 36 38 39 40 41 42
50 51 52 52 52 53 53 54 56 57 58 58 59 58 56 53 48 44 40 38 36 34 32 30 28 28 30 32 32 30 27 24 23 23 25 27 29 31 34 36 37 39 40
49 49 49 50 51 52 54 56 57 57 57 57 55 52 48 42 37 34 32 31 29 26 23 21 21 23 25 26 24 21 18 17 17 18 20 22 24 26 29 32 34 36 38
47 48 49 51 52 54 55 56 56 56 54 51 48 44 39 35 33 32 30 27 23 20 18 18 18 20 20 18 15 13 11 11 12 14 16 18 20 23 26 29 31 33 35
47 49 51 52 54 54 54 54 53 51 48 44 41 38 36 34 34 31 28 23 20 18 17 16 15 14 12 10 7 6 6 8 10 12 14 16 19 22 25 28 30 33 35
48 50 51 52 52 52 52 51 48 45 42 39 37 35 34 33 31 28 24 21 18 16 13 11 10 8 6 4 3 3 5 7 9 11 13 15 18 21 25 28 30 33 36
49 49 49 49 50 50 48 45 41 38 36 34 33 32 30 27 24 20 18 16 13 10 8 6 4 2 2 1 2 3 4 6 7 9 11 14 18 21 23 24 25 27 29
47 47 48 48 47 45 42 38 34 32 30 29 29 29 26 21 16 13 11 9 7 4 3 2 2 3 2 2 2 2 3 3 5 7 10 13 15 16 16 16 16 17 20
Wind_Direction
304 306 306 303 301 299 299 299 298 297 295 293 293 292 292 290 289 287 286 284 283 282 280 278 276 274 273 272 271 270 268 267 266 265 264 263 261 259 257 255 255 255 256
300 301 301 300 300 300 299 299 299 298 296 295 293 292 291 290 288 286 284 284 282 281 280 278 277 275 274 273 272 270 268 267 266 266 265 264 263 261 259 257 256 256 256
302 303 303 304 303 302 300 299 297 295 294 293 292 291 289 288 286 285 283 282 281 280 278 278 277 276 275 274 272 271 270 267 266 266 265 265 263 262 259 258 257 257 257
303 305 306 306 305 306 305 303 299 296 293 291 289 288 287 285 284 282 281 280 279 278 277 277 277 276 275 274 273 272 270 268 266 265 264 264 263 262 260 259 258 258 257
299 298 299 299 300 303 306 306 303 299 295 291 288 287 285 283 281 280 280 279 279 278 277 276 276 276 275 274 273 272 270 268 266 265 264 263 262 261 260 260 259 258 257
294 292 292 291 293 297 301 303 303 300 297 293 289 287 285 283 282 281 280 279 278 277 275 275 275 274 273 271 270 269 268 267 267 266 265 264 262 261 260 258 258 257 256
293 290 289 289 291 294 297 300 301 300 298 296 292 290 288 286 285 283 282 280 279 277 275 274 272 272 270 269 268 267 267 268 268 267 266 264 262 261 259 257 256 255 254
294 292 290 289 290 291 295 299 300 300 299 297 295 293 291 289 288 286 283 280 279 278 275 273 270 269 268 269 268 266 266 267 268 268 267 266 264 262 259 257 254 253 252
292 290 289 290 290 291 293 296 298 299 298 297 297 296 293 290 288 287 285 283 281 279 275 272 270 270 270 270 270 270 269 269 269 269 268 267 265 263 261 258 255 252 250
294 293 291 291 290 290 292 294 296 297 297 297 297 297 295 292 289 287 285 283 281 278 275 273 273 273 273 273 273 273 273 273 271 270 269 268 266 263 261 259 255 252 249
296 296 295 294 292 291 290 293 295 295 296 297 297 297 295 292 289 286 282 280 280 278 275 273 273 274 275 275 275 276 276 275 273 271 269 268 266 263 260 258 255 251 247
299 300 298 297 295 293 292 293 293 294 295 296 296 296 294 291 289 286 283 281 279 277 277 276 275 275 275 275 276 277 277 276 274 272 270 268 265 262 259 256 252 249 246
302 302 301 298 295 294 293 293 294 295 296 296 295 293 291 290 288 286 283 281 279 278 277 277 276 276 275 275 276 277 276 274 272 271 270 268 264 261 258 255 251 246 244
304 302 300 297 294 293 293 294 296 296 296 295 293 291 290 289 287 286 285 283 281 280 279 278 277 277 276 276 276 276 274 272 271 270 269 267 262 258 256 253 249 244 242
301 299 297 295 295 295 295 296 296 296 295 293 292 291 290 289 288 288 287 286 285 282 281 280 279 278 277 276 275 274 271 270 270 269 267 262 258 255 254 251 246 243 241
299 298 297 296 296 296 296 296 296 295 294 294 293 292 291 291 291 291 290 288 287 285 283 282 280 278 276 274 272 271 270 270 269 268 264 258 252 251 250 247 243 241 239
297 297 297 297 297 296 296 296 295 295 295 295 294 293 293 294 295 294 292 290 288 287 285 284 281 277 272 270 270 270 270 270 269 265 259 252 247 246 245 242 239 238 237
297 298 298 298 298 297 296 296 296 296 296 296 296 296 297 297 297 295 293 291 289 286 285 284 281 275 270 268 269 271 272 271 266 260 254 247 243 242 239 237 236 236 236
298 299 299 298 297 296 296 297 297 298 298 299 299 300 300 299 297 296 295 293 290 287 285 282 277 272 269 269 271 274 273 269 262 255 248 243 240 237 234 234 235 236 236
300 300 299 298 297 298 298 299 300 301 302 303 303 302 300 298 297 297 297 296 294 291 287 282 275 272 271 272 274 273 270 263 255 248 243 239 236 232 233 234 236 236 235
301 300 300 300 301 302 303 304 305 305 306 305 304 302 300 297 297 297 299 300 298 294 289 283 278 276 275 274 274 269 261 254 248 242 236 232 231 232 234 237 239 239 237
304 304 305 306 307 308 309 309 309 308 307 306 304 302 299 296 296 298 300 300 299 296 292 288 284 280 277 275 269 260 249 242 237 232 230 230 232 236 240 243 244 243 240
307 308 310 311 311 312 312 311 310 309 307 306 304 301 298 296 294 294 295 293 293 293 292 289 286 283 279 273 260 243 236 233 232 233 235 239 245 250 253 253 251 248 245
311 313 313 313 313 314 313 312 310 308 307 305 304 302 301 298 293 289 286 285 286 290 290 287 286 284 274 258 245 238 233 235 237 241 245 251 257 260 261 261 259 256 252
314 314 314 315 315 315 314 312 310 309 308 308 309 308 308 304 296 288 281 279 281 283 279 277 273 270 243 224 229 225 228 233 238 246 254 261 266 268 267 264 262 258 254
314 314 315 317 317 316 315 313 313 313 315 316 317 316 314 309 298 285 277 271 267 255 233 192 148 128 130 131 134 152 180 218 248 265 272 275 273 272 268 260 256 256 254
Height
5852 5850 5849 5847 5846 5844 5842 5840 5839 5837 5835 5834 5832 5830 5828 5826 5824 5821 5818 5816 5814 5811 5809 5808 5806 5805 5805 5804 5804 5804 5804 5804 5805 5806 5808 5809 5811 5812 5814 5815 5815 5815 5815
5848 5846 5845 5843 5841 5839 5836 5834 5832 5830 5828 5826 5824 5822 5819 5817 5814 5811 5807 5805 5803 5800 5798 5796 5794 5793 5792 5792 5791 5791 5791 5792 5792 5793 5795 5797 5799 5801 5803 5805 5806 5807 5807
5844 5842 5840 5838 5835 5833 5831 5828 5826 5823 5821 5818 5815 5813 5809 5806 5803 5800 5796 5792 5789 5787 5785 5782 5781 5779 5779 5778 5777 5777 5778 5778 5779 5780 5782 5784 5786 5789 5791 5793 5795 5797 5798
5839 5837 5835 5832 5830 5827 5825 5822 5819 5816 5813 5809 5806 5802 5799 5795 5791 5787 5783 5778 5775 5772 5770 5768 5767 5765 5764 5763 5762 5763 5763 5764 5765 5766 5768 5770 5772 5774 5777 5780 5782 5784 5787
5834 5832 5829 5826 5823 5821 5818 5814 5811 5807 5804 5800 5796 5792 5787 5783 5779 5774 5769 5764 5760 5758 5755 5752 5751 5750 5748 5747 5747 5747 5747 5748 5749 5750 5752 5754 5757 5759 5762 5765 5768 5771 5774
5829 5826 5823 5819 5816 5813 5810 5806 5802 5798 5794 5789 5784 5780 5775 5770 5765 5760 5755 5750 5746 5743 5740 5736 5735 5733 5732 5732 5732 5731 5731 5732 5733 5734 5736 5738 5740 5743 5746 5749 5752 5755 5759
5823 5819 5816 5812 5808 5805 5801 5796 5792 5787 5782 5777 5772 5766 5761 5755 5750 5745 5740 5734 5729 5725 5722 5720 5719 5717 5716 5716 5717 5717 5717 5718 5718 5719 5720 5721 5723 5725 5728 5731 5734 5738 5742
5815 5811 5808 5804 5799 5795 5791 5786 5780 5775 5768 5763 5757 5752 5746 5740 5732 5727 5722 5717 5712 5708 5706 5704 5703 5703 5703 5703 5703 5704 5704 5705 5705 5704 5705 5705 5706 5708 5709 5712 5716 5720 5725
5806 5802 5798 5793 5789 5783 5778 5773 5768 5761 5755 5748 5742 5736 5729 5723 5716 5709 5704 5700 5697 5694 5692 5691 5690 5690 5690 5690 5689 5689 5690 5691 5690 5690 5690 5690 5690 5691 5692 5694 5697 5701 5706
5794 5790 5786 5781 5776 5770 5765 5760 5754 5747 5741 5733 5726 5719 5712 5705 5699 5695 5690 5687 5685 5683 5681 5679 5678 5677 5676 5675 5675 5675 5675 5675 5674 5674 5674 5674 5674 5674 5675 5676 5679 5682 5687
5781 5777 5773 5768 5763 5757 5752 5746 5739 5733 5725 5719 5711 5704 5697 5691 5685 5681 5677 5675 5672 5670 5669 5667 5666 5664 5662 5661 5660 5659 5659 5658 5657 5657 5657 5657 5657 5657 5658 5660 5662 5665 5670
5768 5763 5758 5753 5747 5742 5737 5731 5724 5718 5711 5704 5696 5689 5683 5678 5673 5669 5664 5661 5659 5658 5655 5653 5651 5649 5647 5645 5644 5643 5642 5641 5640 5640 5640 5640 5640 5640 5642 5644 5646 5650 5654
5755 5750 5744 5739 5733 5728 5721 5716 5709 5703 5696 5689 5682 5675 5669 5664 5660 5656 5652 5648 5645 5643 5640 5637 5634 5632 5629 5628 5627 5626 5625 5623 5623 5623 5622 5622 5623 5624 5625 5627 5630 5635 5640
5742 5737 5731 5725 5719 5713 5707 5701 5695 5688 5681 5675 5668 5662 5656 5651 5647 5642 5637 5633 5629 5626 5623 5620 5615 5612 5610 5608 5607 5607 5606 5605 5605 5605 5605 5605 5606 5607 5609 5612 5615 5620 5626
5730 5724 5718 5712 5706 5700 5693 5687 5680 5673 5666 5660 5654 5648 5643 5637 5632 5627 5621 5616 5611 5607 5605 5600 5595 5591 5589 5588 5587 5586 5586 5585 5587 5587 5587 5588 5589 5591 5594 5597 5601 5606 5612
5717 5711 5705 5699 5693 5686 5679 5672 5665 5658 5652 5645 5640 5634 5628 5622 5616 5610 5604 5598 5591 5586 5583 5580 5575 5571 5568 5567 5566 5567 5567 5567 5568 5569 5570 5571 5573 5576 5579 5583 5588 5593 5599
5705 5699 5692 5686 5679 5672 5665 5658 5651 5644 5638 5631 5625 5619 5613 5606 5599 5592 5585 5578 5572 5565 5561 5559 5555 5552 5550 5549 5549 5550 5550 5551 5551 5552 5553 5555 5558 5562 5566 5571 5576 5581 5586
5693 5686 5680 5673 5666 5658 5651 5644 5637 5630 5623 5617 5609 5602 5595 5588 5581 5573 5566 5560 5553 5547 5543 5541 5539 5537 5536 5535 5536 5536 5536 5536 5536 5537 5539 5542 5546 5550 5555 5559 5564 5570 5575
5680 5674 5667 5660 5652 5645 5638 5630 5623 5616 5608 5600 5592 5585 5577 5570 5563 5557 5550 5543 5537 5532 5529 5527 5526 5525 5525 5524 5525 5525 5524 5524 5524 5525 5528 5531 5535 5540 5545 5550 5555 5560 5565
5668 5661 5653 5646 5639 5632 5624 5616 5608 5600 5592 5584 5576 5568 5561 5554 5548 5543 5537 5531 5525 5521 5518 5516 5515 5515 5516 5515 5515 5515 5514 5514 5515 5517 5520 5523 5528 5532 5537 5542 5547 5551 5555
5655 5647 5640 5633 5625 5618 5610 5601 5592 5584 5576 5568 5560 5553 5546 5541 5537 5532 5527 5522 5517 5513 5510 5509 5509 5508 5508 5507 5507 5507 5507 5508 5510 5512 5515 5519 5523 5527 5530 5534 5537 5541 5545
5642 5634 5627 5619 5611 5602 5594 5585 5577 5569 5561 5554 5547 5540 5535 5531 5527 5523 5519 5514 5510 5507 5506 5504 5504 5503 5502 5501 5501 5502 5503 5505 5507 5510 5512 5515 5518 5521 5523 5526 5528 5531 5534
5630 5622 5613 5605 5596 5588 5580 5572 5564 5555 5548 5542 5535 5530 5525 5521 5518 5514 5511 5508 5506 5504 5502 5501 5499 5498 5497 5497 5498 5500 5501 5503 5506 5508 5510 5512 5514 5515 5516 5517 5518 5521 5523
5617 5609 5601 5592 5584 5576 5569 5560 5552 5544 5538 5531 5526 5520 5515 5510 5507 5504 5503 5502 5501 5500 5499 5497 5496 5496 5496 5496 5498 5499 5501 5503 5504 5506 5507 5508 5508 5508 5508 5508 5508 5509 5511
5606 5598 5591 5582 5574 5566 5558 5550 5542 5535 5528 5522 5517 5511 5505 5501 5497 5496 5496 5496 5496 5496 5496 5495 5495 5495 5496 5497 5498 5499 5501 5502 5503 5503 5503 5503 5502 5501 5500 5499 5498 5498 5498
5595 5588 5581 5573 5565 5556 5548 5541 5534 5527 5521 5515 5509 5503 5498 5494 5491 5491 5491 5492 5493 5494 5494 5495 5495 5496 5497 5498 5499 5500 5501 5501 5502 5501 5501 5499 5497 5495 5494 5492 5491 5490 5489